K3HW Weather Reports


time (UTC)temp
C
wind
direction
speed
KPH
gust
KPH
rain 1hr
cm
rain 24hr
cm
rain mn
cm
humidity
%
barometer
mb
20260510104536 10 44 0.0 0.0 0.00 0.00 0.00 94 1015.4
20260510104032 10 34 0.0 0.0 0.00 0.00 0.00 94 1015.5
20260510103530 10 39 0.0 0.0 0.00 0.00 0.00 94 1015.5
20260510103026 10 44 0.0 0.0 0.00 0.00 0.00 94 1015.4
20260510102522 10 32 0.0 0.0 0.00 0.00 0.00 94 1015.3
20260510102018 10 35 0.0 0.0 0.00 0.00 0.00 94 1015.2
20260510101516 10 35 0.0 0.0 0.00 0.00 0.00 94 1015.2
20260510101014 10 39 0.0 0.0 0.00 0.00 0.00 94 1015.3
20260510100510 10 39 0.0 0.0 0.00 0.00 0.00 94 1015.1
20260510100007 10 39 0.0 0.0 0.00 0.00 0.00 94 1015.1
20260510095502 10 38 0.0 0.0 0.00 0.00 0.00 94 1015.2
20260510095002 10 37 0.0 0.0 0.00 0.00 0.00 94 1015.2
20260510094457 10 38 0.0 0.0 0.00 0.00 0.00 94 1015.2
20260510093953 10 37 0.0 0.0 0.00 0.00 0.00 94 1015.0
20260510093449 10 36 0.0 0.0 0.00 0.00 0.00 93 1015.1
20260510092945 10 34 0.0 0.0 0.00 0.00 0.00 93 1014.8
20260510092443 10 31 0.0 0.0 0.00 0.00 0.00 93 1014.9
20260510091942 10 35 0.0 0.0 0.00 0.00 0.00 93 1014.8
20260510091440 10 36 0.0 0.0 0.00 0.00 0.00 93 1014.8
20260510090936 10 41 0.0 0.0 0.00 0.00 0.00 93 1014.5
20260510090433 10 41 0.0 0.0 0.00 0.00 0.00 93 1014.6
20260510085928 10 42 0.0 0.0 0.00 0.00 0.00 93 1014.8
20260510085424 10 39 0.0 0.0 0.00 0.00 0.00 93 1015.1
20260510084919 10 36 0.0 0.0 0.00 0.00 0.00 93 1015.0
20260510084417 10 33 0.0 0.0 0.00 0.00 0.00 93 1015.0
20260510083913 10 33 0.0 0.0 0.00 0.00 0.00 93 1015.1
20260510083410 10 35 0.0 0.0 0.00 0.00 0.00 93 1014.9
20260510082905 10 33 0.0 0.0 0.00 0.00 0.00 93 1015.1
20260510082403 10 34 0.0 0.0 0.00 0.00 0.00 93 1015.2
20260510081901 10 13 0.0 0.0 0.00 0.00 0.00 93 1015.3
20260510081358 10 40 0.0 0.0 0.00 0.00 0.00 93 1014.9
20260510080855 10 33 0.0 0.0 0.00 0.00 0.00 93 1015.1
20260510080348 10 36 0.0 0.0 0.00 0.00 0.00 93 1014.9
20260510075846 10 40 0.0 0.0 0.00 0.00 0.00 93 1014.8
20260510075344 10 7 0.0 0.0 0.00 0.00 0.00 93 1014.9
20260510074840 10 37 0.0 0.0 0.00 0.00 0.00 93 1014.3
20260510074337 10 37 0.0 0.0 0.00 0.00 0.00 93 1014.4
20260510073833 10 36 0.0 0.0 0.00 0.00 0.00 93 1014.3
20260510073329 10 36 0.0 0.0 0.00 0.00 0.00 93 1014.5
20260510072825 10 35 0.0 0.0 0.00 0.00 0.00 93 1014.3
20260510072323 10 36 0.0 0.0 0.00 0.00 0.00 93 1014.3
20260510071819 10 40 0.0 0.0 0.00 0.00 0.00 93 1014.3
20260510071315 10 41 0.0 0.0 0.00 0.00 0.00 93 1014.1
20260510070814 10 41 0.0 0.0 0.00 0.00 0.00 93 1014.2
20260510070310 10 34 0.0 0.0 0.00 0.00 0.00 93 1014.2
20260510065810 10 37 0.0 0.0 0.00 0.00 0.00 93 1014.4
20260510065307 10 36 0.0 0.0 0.00 0.00 0.00 93 1014.4
20260510064804 9 26 0.0 0.0 0.00 0.00 0.00 93 1014.6
20260510064303 9 29 0.0 0.0 0.00 0.00 0.00 93 1014.3
20260510063803 9 33 0.0 0.0 0.00 0.00 0.00 93 1014.3
20260510063259 9 33 0.0 0.0 0.00 0.00 0.00 93 1014.3
20260510062756 9 34 0.0 0.0 0.00 0.00 0.00 93 1014.2
20260510062252 8 36 0.0 0.0 0.00 0.00 0.00 93 1014.2
20260510061747 9 40 0.0 0.0 0.00 0.00 0.00 93 1013.9
20260510061245 9 40 0.0 0.0 0.00 0.00 0.00 93 1014.0
20260510060741 9 40 0.0 0.0 0.00 0.00 0.00 93 1013.7
20260510060238 9 40 0.0 0.0 0.00 0.00 0.00 93 1013.7
20260510055734 9 40 0.0 0.0 0.00 0.00 0.00 93 1014.0
20260510055233 9 40 0.0 0.0 0.00 0.00 0.00 93 1014.2
20260510054732 9 40 0.0 0.0 0.00 0.00 0.00 93 1014.1
20260510054229 9 40 0.0 0.0 0.00 0.00 0.00 93 1014.2
20260510053728 9 40 0.0 0.0 0.00 0.00 0.00 93 1014.2
20260510053225 9 41 0.0 0.0 0.00 0.00 0.00 93 1014.2
20260510052720 10 41 0.0 0.0 0.00 0.00 0.00 93 1014.1
20260510052217 10 41 0.0 0.0 0.00 0.00 0.00 93 1014.2
20260510051712 10 41 0.0 0.0 0.00 0.00 0.00 93 1014.2
20260510051209 10 41 0.0 0.0 0.00 0.00 0.00 93 1014.4
20260510050707 10 42 0.0 0.0 0.00 0.00 0.00 93 1014.1
20260510050204 10 42 0.0 0.0 0.00 0.00 0.00 92 1014.4
20260510045700 10 42 0.0 0.0 0.00 0.00 0.00 92 1014.6
20260510045157 10 40 0.0 0.0 0.00 0.00 0.00 92 1014.5
20260510044653 10 40 0.0 0.0 0.00 0.00 0.00 92 1014.5
20260510044151 10 40 0.0 0.0 0.00 0.00 0.00 92 1014.6
20260510043646 10 42 0.0 0.0 0.00 0.00 0.00 92 1014.5
20260510043143 10 42 0.0 0.0 0.00 0.00 0.00 92 1014.6
20260510042641 9 40 0.0 0.0 0.00 0.00 0.00 92 1014.6
20260510042137 9 39 0.0 0.0 0.00 0.00 0.00 92 1014.6
20260510041634 9 41 0.0 0.0 0.00 0.00 0.00 92 1014.7
20260510041131 9 42 0.0 0.0 0.00 0.00 0.00 92 1014.6
20260510040628 9 42 0.0 0.0 0.00 0.00 0.00 92 1014.7
20260510040124 8 41 0.0 0.0 0.00 0.00 0.00 92 1014.8
20260510035620 8 41 0.0 0.0 0.00 0.48 0.48 92 1014.7
20260510035115 9 42 0.0 0.0 0.00 0.48 0.48 92 1014.5
20260510034613 9 41 0.0 0.0 0.00 0.48 0.48 92 1014.7
20260510034110 9 39 0.0 0.0 0.00 0.48 0.48 92 1014.7
20260510033606 9 39 0.0 0.0 0.00 0.48 0.48 92 1014.5
20260510033104 9 39 0.0 0.0 0.00 0.48 0.48 92 1014.6
20260510032600 9 39 0.0 0.0 0.00 0.48 0.48 91 1014.5
20260510032055 9 39 0.0 0.0 0.00 0.48 0.48 91 1014.5
20260510031550 10 39 0.0 0.0 0.00 0.48 0.48 91 1014.3
20260510031047 10 39 0.0 0.0 0.00 0.48 0.48 91 1014.2
20260510030542 10 39 0.0 0.0 0.00 0.48 0.48 91 1014.2
20260510030040 10 40 0.0 0.0 0.00 0.48 0.48 91 1014.2
20260510025536 10 40 0.0 0.0 0.00 0.48 0.48 91 1014.2
20260510025034 10 40 0.0 0.0 0.00 0.48 0.48 91 1014.2
20260510024531 10 40 0.0 0.0 0.00 0.48 0.48 91 1014.2
20260510024027 10 40 0.0 0.0 0.00 0.48 0.48 91 1014.3
20260510023523 10 40 0.0 0.0 0.00 0.48 0.48 91 1014.1
20260510023020 10 42 0.0 0.0 0.00 0.48 0.48 91 1014.2
20260510022519 10 42 0.0 0.0 0.00 0.48 0.48 91 1014.1
20260510022014 10 42 0.0 0.0 0.00 0.48 0.48 91 1014.3
20260510021511 10 42 0.0 0.0 0.00 0.48 0.48 91 1014.1
20260510021008 10 42 0.0 0.0 0.00 0.48 0.48 91 1014.1
20260510020502 10 42 0.0 0.0 0.00 0.48 0.48 91 1014.0
20260510015958 10 44 0.0 0.0 0.00 0.48 0.48 91 1014.0
20260510015454 11 44 0.0 0.0 0.00 0.48 0.48 91 1014.1
20260510014949 11 44 0.0 0.0 0.00 0.48 0.48 91 1013.9
20260510014448 11 44 0.0 0.0 0.00 0.48 0.48 91 1014.1
20260510013944 11 44 0.0 0.0 0.00 0.48 0.48 90 1014.0
20260510013438 11 39 0.0 0.0 0.00 0.48 0.48 90 1013.9
20260510012935 11 39 0.0 0.0 0.00 0.48 0.48 90 1014.0
20260510012429 11 39 0.0 0.0 0.00 0.48 0.48 90 1014.1
20260510011924 11 39 0.0 0.0 0.00 0.48 0.48 90 1014.2
20260510011420 11 39 0.0 0.0 0.00 0.48 0.48 90 1013.7
20260510010916 11 39 0.0 0.0 0.00 0.48 0.48 90 1013.6
20260510010413 11 39 0.0 0.0 0.00 0.48 0.48 89 1013.6
20260510005910 11 39 0.0 0.0 0.00 0.48 0.48 89 1013.9
20260510005406 11 40 0.0 0.0 0.00 0.48 0.48 89 1013.4
20260510004904 12 39 0.0 0.0 0.00 0.48 0.48 89 1013.4
20260510004401 12 39 0.0 0.0 0.00 0.48 0.48 89 1013.6
20260510003859 12 40 0.0 0.0 0.00 0.48 0.48 89 1013.7
20260510003355 12 39 0.0 0.0 0.00 0.48 0.48 88 1013.2
20260510002854 12 39 0.0 0.0 0.00 0.48 0.48 88 1013.4
20260510002352 12 39 0.0 0.0 0.00 0.48 0.48 87 1013.5
20260510001848 12 39 0.0 0.0 0.00 0.48 0.48 87 1013.5
20260510001346 12 39 0.0 0.0 0.00 0.48 0.48 87 1013.3
20260510000842 12 40 0.0 0.0 0.00 0.48 0.48 86 1013.1
20260510000341 13 36 0.0 0.0 0.00 0.48 0.48 86 1013.4
20260509235836 13 40 0.0 0.0 0.00 0.48 0.48 86 1013.3
20260509235333 13 40 0.0 0.0 0.00 0.48 0.48 85 1013.4
20260509234829 13 42 0.0 0.0 0.00 0.48 0.48 85 1013.2
20260509234326 13 41 0.0 0.0 0.00 0.48 0.48 85 1013.4
20260509233824 13 39 0.0 0.0 0.00 0.48 0.48 85 1013.4
20260509233321 13 46 0.0 0.0 0.00 0.48 0.48 84 1013.3
20260509232817 13 39 0.0 0.0 0.00 0.48 0.48 85 1013.5
20260509232315 13 41 0.0 0.0 0.00 0.48 0.48 85 1013.5
20260509231811 13 42 0.0 0.0 0.00 0.48 0.48 85 1013.4
20260509231308 13 41 0.0 0.0 0.00 0.48 0.48 84 1013.3
20260509230806 13 45 0.0 0.0 0.00 0.48 0.48 84 1013.3
20260509230303 14 39 0.0 0.0 0.00 0.48 0.48 83 1013.4
20260509225803 14 53 0.0 0.0 0.00 0.48 0.48 83 1013.3
20260509225300 15 43 0.0 0.0 0.00 0.48 0.48 82 1013.2
20260509224756 15 49 0.0 0.0 0.00 0.48 0.48 81 1013.3
20260509224253 15 53 0.0 0.0 0.00 0.48 0.48 80 1013.2
20260509223749 15 39 0.0 0.0 0.00 0.48 0.48 80 1013.2
20260509223246 15 49 0.0 0.0 0.00 0.48 0.48 82 1013.2
20260509222743 15 39 0.0 0.0 0.00 0.48 0.48 83 1013.4
20260509222239 14 36 0.0 0.0 0.00 0.48 0.48 83 1013.3
20260509221734 15 41 0.0 0.0 0.00 0.48 0.48 83 1013.3
20260509221231 15 41 0.0 0.0 0.00 0.48 0.48 82 1013.2
20260509220727 15 74 0.0 0.0 0.00 0.48 0.48 82 1013.0
20260509220224 15 43 0.0 0.0 0.00 0.48 0.48 83 1013.1
20260509215719 15 37 0.0 0.0 0.00 0.48 0.48 82 1013.1
20260509215216 15 42 0.0 0.0 0.00 0.48 0.48 82 1013.2
20260509214713 15 46 0.0 0.0 0.00 0.48 0.48 82 1013.2
20260509214210 15 41 0.0 0.0 0.00 0.48 0.48 81 1013.3
20260509213707 15 40 0.0 0.0 0.00 0.48 0.48 79 1013.1
20260509213202 15 30 0.0 0.0 0.00 0.48 0.48 81 1013.2
20260509212700 14 14 0.0 0.0 0.00 0.48 0.48 82 1013.1
20260509212157 14 37 0.0 0.0 0.00 0.48 0.48 83 1013.2
20260509211652 14 34 0.0 0.0 0.00 0.48 0.48 83 1013.4
20260509211149 14 33 0.0 0.0 0.00 0.48 0.48 83 1013.3
20260509210647 14 34 0.0 0.0 0.00 0.48 0.48 82 1013.3
20260509210144 14 35 0.0 0.0 0.00 0.48 0.48 82 1013.3
20260509205639 15 31 0.0 0.0 0.00 0.48 0.48 84 1013.4
20260509205138 14 34 0.0 0.0 0.00 0.48 0.48 84 1013.3
20260509204635 13 24 0.0 0.0 0.00 0.48 0.48 85 1013.3
20260509204131 13 37 0.0 0.0 0.00 0.48 0.48 87 1013.3
20260509203627 13 37 0.0 0.0 0.00 0.48 0.48 88 1013.2
20260509203126 13 41 0.0 0.0 0.00 0.48 0.48 88 1013.5
20260509202626 13 39 0.0 0.0 0.00 0.48 0.48 88 1013.4
20260509202121 13 40 0.0 0.0 0.00 0.48 0.48 88 1013.3
20260509201616 13 55 0.0 0.0 0.00 0.48 0.48 88 1013.4
20260509201114 12 48 0.0 0.0 0.00 0.48 0.48 89 1013.4
20260509200615 13 38 0.0 0.0 0.00 0.48 0.48 89 1013.3
20260509200110 13 40 0.0 0.0 0.00 0.48 0.48 89 1013.4
20260509195607 13 37 0.0 0.0 0.13 0.48 0.48 89 1013.5
20260509195101 12 36 0.0 0.0 0.13 0.48 0.48 89 1013.9
20260509194601 12 33 0.0 0.0 0.18 0.46 0.46 89 1013.9
20260509194059 12 40 0.0 0.0 0.18 0.46 0.46 89 1014.1
20260509193554 12 36 0.0 0.0 0.00 0.43 0.43 89 1014.0
20260509193050 13 34 0.0 0.0 0.00 0.43 0.43 89 1014.2
20260509192547 13 34 0.0 0.0 0.13 0.43 0.43 89 1014.1
20260509192043 13 37 0.0 0.0 0.13 0.43 0.43 89 1014.4
20260509191542 13 38 0.0 0.0 0.18 0.41 0.41 89 1014.4
20260509191039 13 24 0.0 0.0 0.18 0.41 0.41 89 1014.4
20260509190536 13 34 0.0 0.0 0.00 0.38 0.38 89 1014.5
20260509190034 13 33 0.0 0.0 0.13 0.38 0.38 89 1014.8
20260509185531 13 27 0.0 0.0 0.13 0.38 0.38 89 1014.8
20260509185027 13 26 0.0 0.0 0.00 0.36 0.36 89 1014.7
20260509184525 13 356 0.0 0.0 0.00 0.36 0.36 89 1014.9
20260509184021 13 29 0.0 0.0 0.00 0.36 0.36 89 1014.8
20260509183517 13 24 0.0 0.0 0.00 0.36 0.36 89 1014.9
20260509183013 13 356 0.0 0.0 0.18 0.36 0.36 89 1014.8
20260509182509 13 32 0.0 0.0 0.30 0.36 0.36 89 1014.9
20260509182006 13 29 0.0 0.0 0.13 0.33 0.33 89 1015.0
20260509181505 13 2 0.0 0.0 0.18 0.30 0.30 89 1015.0
20260509181002 13 28 0.0 0.0 0.36 0.30 0.30 89 1015.1
20260509180457 13 34 0.0 0.0 0.18 0.28 0.28 89 1015.1
20260509175954 13 13 0.0 0.0 0.18 0.28 0.28 89 1015.2
20260509175450 13 26 0.0 0.0 0.13 0.25 0.25 88 1015.1
20260509174947 13 37 0.0 0.0 0.13 0.25 0.25 88 1015.3
20260509174444 13 32 0.0 0.0 0.30 0.23 0.23 88 1014.9
20260509173939 13 343 0.0 0.0 0.48 0.23 0.23 88 1015.1
20260509173439 13 35 0.0 0.0 0.30 0.20 0.20 87 1014.8
20260509172935 13 35 0.0 0.0 0.30 0.18 0.18 87 1014.9
20260509172433 13 22 0.0 0.0 0.00 0.13 0.13 86 1014.8
20260509171928 13 29 0.0 0.0 0.18 0.13 0.13 86 1014.8
20260509171424 13 25 0.0 0.0 0.18 0.13 0.13 85 1014.7
20260509170921 13 33 0.0 0.0 0.13 0.10 0.10 85 1014.4
20260509170416 13 36 0.0 0.0 0.13 0.10 0.10 85 1014.6
20260509165913 13 28 0.0 0.0 0.00 0.08 0.08 84 1014.8
20260509165406 13 35 0.0 0.0 0.18 0.08 0.08 83 1014.9
20260509164902 14 24 0.0 0.0 0.18 0.08 0.08 83 1014.7
20260509164359 13 31 0.0 0.0 0.00 0.05 0.05 82 1014.9
20260509163855 14 31 0.0 0.0 0.13 0.05 0.05 82 1015.1
20260509163352 14 8 0.0 0.0 0.13 0.05 0.05 83 1015.0
20260509162851 14 354 0.0 0.0 0.18 0.03 0.03 81 1014.9
20260509162350 15 27 0.0 0.0 0.18 0.03 0.03 80 1014.9
20260509161846 15 24 0.0 0.0 0.00 0.00 0.00 78 1015.1
20260509161342 15 173 0.0 0.0 0.00 0.00 0.00 79 1015.3
20260509160838 15 45 0.0 0.0 0.00 0.00 0.00 77 1015.5
20260509160334 15 35 0.0 0.0 0.00 0.00 0.00 76 1015.3
20260509155829 15 40 0.0 0.0 0.00 0.00 0.00 74 1015.3
20260509155326 15 31 0.0 0.0 0.00 0.00 0.00 73 1015.3
20260509154822 15 310 0.0 0.0 0.00 0.00 0.00 72 1015.4
20260509154319 16 8 0.0 0.0 0.00 0.00 0.00 71 1015.7
20260509153816 16 357 0.0 0.0 0.00 0.00 0.00 71 1015.8
20260509153313 16 9 0.0 0.0 0.00 0.00 0.00 70 1015.4
20260509152809 16 40 0.0 0.0 0.00 0.00 0.00 70 1015.2
20260509152306 16 40 0.0 0.0 0.00 0.00 0.00 70 1015.3
20260509151803 16 25 0.0 0.0 0.00 0.00 0.00 70 1015.5
20260509151259 16 56 0.0 0.0 0.00 0.00 0.00 67 1015.5
20260509150758 16 82 0.0 0.0 0.00 0.00 0.00 68 1015.3
20260509150255 16 318 0.0 0.0 0.00 0.00 0.00 67 1015.5
20260509145752 16 32 0.0 0.0 0.00 0.00 0.00 69 1015.2
20260509145251 16 227 0.0 0.0 0.00 0.00 0.00 70 1015.3
20260509144748 16 47 0.0 0.0 0.00 0.00 0.00 69 1015.4
20260509144245 16 50 0.0 0.0 0.00 0.00 0.00 70 1015.3
20260509143742 16 342 0.0 0.0 0.00 0.00 0.00 69 1015.2
20260509143240 16 50 0.0 0.0 0.00 0.00 0.00 69 1015.2
20260509142736 16 359 0.0 0.0 0.00 0.00 0.00 68 1015.4
20260509142232 16 39 0.0 0.0 0.00 0.00 0.00 71 1015.3
20260509141728 15 356 0.0 0.0 0.00 0.00 0.00 68 1015.1
20260509141225 15 35 0.0 0.0 0.00 0.00 0.00 71 1015.0
20260509140722 15 74 0.0 0.0 0.00 0.00 0.00 73 1015.1
20260509140222 15 350 0.0 0.0 0.00 0.00 0.00 72 1015.1
20260509135716 15 44 0.0 0.0 0.00 0.00 0.00 72 1015.0
20260509135214 15 13 0.0 0.0 0.00 0.00 0.00 73 1015.1
20260509134711 15 71 0.0 0.0 0.00 0.00 0.00 72 1015.0
20260509134208 15 54 0.0 0.0 0.00 0.00 0.00 73 1014.9
20260509133705 15 36 0.0 0.0 0.00 0.00 0.00 74 1015.1
20260509133202 15 42 0.0 0.0 0.00 0.00 0.00 74 1015.0
20260509132700 15 49 0.0 0.0 0.00 0.00 0.00 73 1014.9
20260509132159 15 40 0.0 0.0 0.00 0.00 0.00 74 1014.9
20260509131654 15 53 0.0 0.0 0.00 0.00 0.00 73 1015.1
20260509131152 15 57 0.0 0.0 0.00 0.00 0.00 74 1014.9
20260509130647 15 37 0.0 0.0 0.00 0.00 0.00 74 1014.9
20260509130144 14 35 0.0 0.0 0.00 0.00 0.00 75 1015.1
20260509125640 14 41 0.0 0.0 0.00 0.00 0.00 75 1015.1
20260509125137 13 41 0.0 0.0 0.00 0.00 0.00 75 1015.1
20260509124634 13 38 0.0 0.0 0.00 0.00 0.00 75 1015.0
20260509124131 13 37 0.0 0.0 0.00 0.00 0.00 75 1015.0
20260509123629 13 40 0.0 0.0 0.00 0.00 0.00 75 1015.2
20260509123125 13 40 0.0 0.0 0.00 0.00 0.00 75 1015.0
20260509122621 13 37 0.0 0.0 0.00 0.00 0.00 76 1015.1
20260509122119 12 38 0.0 0.0 0.00 0.00 0.00 76 1015.2
20260509121615 12 36 0.0 0.0 0.00 0.00 0.00 76 1015.1
20260509121113 12 36 0.0 0.0 0.00 0.00 0.00 76 1015.1
20260509120611 12 39 0.0 0.0 0.00 0.00 0.00 76 1015.2
20260509120109 12 39 0.0 0.0 0.00 0.00 0.00 76 1015.1
20260509115606 12 37 0.0 0.0 0.00 0.00 0.00 77 1015.0
20260509115103 12 34 0.0 0.0 0.00 0.00 0.00 77 1015.2
20260509114601 12 37 0.0 0.0 0.00 0.00 0.00 77 1015.1
20260509114100 12 36 0.0 0.0 0.00 0.00 0.00 78 1015.2
20260509113558 12 36 0.0 0.0 0.00 0.00 0.00 78 1015.2
20260509113055 12 41 0.0 0.0 0.00 0.00 0.00 77 1014.9
20260509112551 11 39 0.0 0.0 0.00 0.00 0.00 78 1015.1
20260509112048 12 38 0.0 0.0 0.00 0.00 0.00 78 1014.9
20260509111546 12 38 0.0 0.0 0.00 0.00 0.00 77 1015.0
20260509111043 12 40 0.0 0.0 0.00 0.00 0.00 77 1015.0
20260509110540 12 41 0.0 0.0 0.00 0.00 0.00 77 1015.0
20260509110037 12 40 0.0 0.0 0.00 0.00 0.00 77 1015.0
20260509105535 11 39 0.0 0.0 0.00 0.00 0.00 77 1015.0
20260509105032 11 39 0.0 0.0 0.00 0.00 0.00 78 1014.9